When you browse on this site, cookies collect data to enhance your experience and personalize the content and advertising you see.
Visit our Privacy Policy to learn more. By continuing to use the site, you agree to this use of cookies and data.
  • In Hungary
  • List of Countries
  • For 7 days
  • Water Temperature
  • Satellite Maps
  • Weather Map
  • News
  • Weather Widgets
  • user-avatar
    Login

    Hourly Weather Belmopan

    Today, 11 December, Tuesday

    Time Temperature Precipitation Wind Pressure Humidity
    00:00 +21°C° 0 mm 1 mps 759 mmHg 93%
    01:00 +21°C° 0 mm 1 mps 759 mmHg 93%
    02:00 +21°C° 0 mm 1 mps 759 mmHg 92%
    03:00 +20°C° 0 mm 1 mps 759 mmHg 91%
    04:00 +20°C° 0 mm 1 mps 759 mmHg 91%
    05:00 +20°C° 0 mm 1 mps 759 mmHg 92%
    06:00 +19°C° 0 mm 1 mps 759 mmHg 92%
    07:00 +20°C° 0 mm 2 mps 760 mmHg 85%
    08:00 +21°C° 0 mm 2 mps 760 mmHg 78%
    09:00 +23°C° 0 mm 2 mps 761 mmHg 72%
    10:00 +25°C° 0 mm 2 mps 761 mmHg 66%
    11:00 +26°C° 0 mm 2 mps 760 mmHg 59%
    12:00 +28°C° 0 mm 2 mps 760 mmHg 53%
    13:00 +28°C° 0 mm 2 mps 759 mmHg 54%
    14:00 +28°C° 0 mm 2 mps 759 mmHg 54%
    15:00 +28°C° 0 mm 2 mps 758 mmHg 54%
    16:00 +26°C° 0 mm 2 mps 758 mmHg 61%
    17:00 +25°C° 0 mm 1 mps 758 mmHg 67%
    18:00 +23°C° 0 mm 1 mps 758 mmHg 74%
    19:00 +23°C° 0 mm 1 mps 758 mmHg 75%
    20:00 +22°C° 0 mm 1 mps 759 mmHg 77%
    21:00 +22°C° 0 mm 1 mps 759 mmHg 78%
    22:00 +21°C° 0 mm 1 mps 759 mmHg 81%
    23:00 +21°C° 0 mm 1 mps 759 mmHg 83%

    Tomorrow, 12 December, Wednesday

    Time Temperature Precipitation Wind Pressure Humidity
    00:00 +20°C° 0 mm 1 mps 759 mmHg 85%
    01:00 +19°C° 0 mm 1 mps 758 mmHg 87%
    02:00 +19°C° 0 mm 1 mps 758 mmHg 88%
    03:00 +18°C° 0 mm 1 mps 757 mmHg 90%
    04:00 +18°C° 0 mm 1 mps 757 mmHg 90%
    05:00 +18°C° 0 mm 1 mps 757 mmHg 91%
    06:00 +16°C° 0 mm 1 mps 757 mmHg 91%
    07:00 +19°C° 0 mm 1 mps 758 mmHg 83%
    08:00 +21°C° 0 mm 1 mps 758 mmHg 74%
    09:00 +24°C° 0 mm 1 mps 759 mmHg 65%
    10:00 +25°C° 0 mm 1 mps 758 mmHg 61%
    11:00 +27°C° 0 mm 1 mps 757 mmHg 56%
    12:00 +29°C° 0 mm 1 mps 757 mmHg 52%
    13:00 +28°C° 0 mm 1 mps 756 mmHg 55%
    14:00 +28°C° 0 mm 1 mps 755 mmHg 58%
    15:00 +28°C° 0 mm 1 mps 754 mmHg 61%
    16:00 +26°C° 0 mm 1 mps 754 mmHg 68%
    17:00 +25°C° 0 mm 1 mps 755 mmHg 75%
    18:00 +23°C° 0 mm 1 mps 755 mmHg 82%
    19:00 +23°C° 0 mm 1 mps 755 mmHg 84%
    20:00 +23°C° 0 mm 1 mps 755 mmHg 86%
    21:00 +22°C° 0 mm 1 mps 756 mmHg 89%
    22:00 +22°C° 0 mm 1 mps 755 mmHg 90%
    23:00 +22°C° 0 mm 1 mps 755 mmHg 92%

    Day after tomorrow, 13 December, Thursday

    Time Temperature Precipitation Wind Pressure Humidity
    00:00 +22°C° 0 mm 1 mps 755 mmHg 93%
    01:00 +22°C° 0 mm 1 mps 754 mmHg 94%
    02:00 +20°C° 0 mm 0 mps 754 mmHg 94%
    03:00 +20°C° 0 mm 0 mps 753 mmHg 95%
    04:00 +20°C° 0 mm 0 mps 753 mmHg 95%
    05:00 +20°C° 0 mm 0 mps 753 mmHg 95%
    06:00 +20°C° 0 mm 0 mps 753 mmHg 96%
    07:00 +21°C° 0 mm 0 mps 754 mmHg 90%
    08:00 +25°C° 0 mm 1 mps 754 mmHg 85%
    09:00 +27°C° 0 mm 1 mps 755 mmHg 80%
    10:00 +28°C° 0 mm 1 mps 754 mmHg 73%
    11:00 +30°C° 0 mm 1 mps 754 mmHg 66%
    12:00 +32°C° 0 mm 1 mps 753 mmHg 59%
    13:00 +32°C° 0 mm 2 mps 752 mmHg 57%
    14:00 +34°C° 0 mm 2 mps 751 mmHg 55%
    15:00 +34°C° 0 mm 2 mps 750 mmHg 54%
    16:00 +31°C° 0 mm 1 mps 751 mmHg 63%
    17:00 +29°C° 0 mm 1 mps 751 mmHg 72%
    18:00 +27°C° 0 mm 1 mps 751 mmHg 81%
    19:00 +26°C° 0 mm 1 mps 752 mmHg 85%
    20:00 +25°C° 0 mm 1 mps 752 mmHg 88%
    21:00 +24°C° 0 mm 1 mps 753 mmHg 91%
    22:00 +24°C° 0 mm 1 mps 753 mmHg 93%
    23:00 +24°C° 0 mm 1 mps 752 mmHg 94%

    14 December, Friday

    Time Temperature Precipitation Wind Pressure Humidity
    00:00 +23°C° 0 mm 1 mps 752 mmHg 95%
    01:00 +23°C° 0 mm 1 mps 752 mmHg 96%
    02:00 +21°C° 0 mm 0 mps 752 mmHg 96%
    03:00 +21°C° 0 mm 0 mps 752 mmHg 97%
    04:00 +21°C° 0.1 mm 0 mps 752 mmHg 97%
    05:00 +21°C° 0.1 mm 0 mps 753 mmHg 98%
    06:00 +23°C° 0.1 mm 1 mps 753 mmHg 98%
    07:00 +24°C° 0.4 mm 1 mps 754 mmHg 91%
    08:00 +26°C° 0.4 mm 1 mps 755 mmHg 84%
    09:00 +28°C° 0.4 mm 1 mps 755 mmHg 77%
    10:00 +29°C° 0.7 mm 2 mps 755 mmHg 74%
    11:00 +30°C° 0.7 mm 2 mps 755 mmHg 70%
    12:00 +31°C° 0.7 mm 2 mps 755 mmHg 67%
    13:00 +30°C° 0.8 mm 2 mps 754 mmHg 73%
    14:00 +29°C° 0.8 mm 2 mps 754 mmHg 79%
    15:00 +28°C° 0.8 mm 2 mps 754 mmHg 84%
    16:00 +27°C° 1.4 mm 2 mps 754 mmHg 89%
    17:00 +25°C° 1.4 mm 2 mps 755 mmHg 93%
    18:00 +24°C° 1.4 mm 2 mps 756 mmHg 97%
    19:00 +23°C° 0.3 mm 2 mps 757 mmHg 97%
    20:00 +23°C° 0.3 mm 2 mps 757 mmHg 97%
    21:00 +23°C° 0.3 mm 2 mps 758 mmHg 97%
    22:00 +21°C° 0 mm 2 mps 758 mmHg 96%
    23:00 +21°C° 0 mm 2 mps 758 mmHg 95%

    15 December, Saturday

    Time Temperature Precipitation Wind Pressure Humidity
    00:00 +20°C° 0 mm 2 mps 758 mmHg 94%
    01:00 +19°C° 0 mm 2 mps 758 mmHg 93%
    02:00 +19°C° 0 mm 2 mps 758 mmHg 92%
    03:00 +18°C° 0 mm 2 mps 758 mmHg 90%
    04:00 +18°C° 0 mm 2 mps 758 mmHg 91%
    05:00 +18°C° 0 mm 1 mps 759 mmHg 91%
    06:00 +18°C° 0 mm 1 mps 759 mmHg 91%
    07:00 +19°C° 0 mm 2 mps 760 mmHg 83%
    08:00 +20°C° 0 mm 2 mps 760 mmHg 76%
    09:00 +23°C° 0 mm 2 mps 761 mmHg 69%
    10:00 +24°C° 0 mm 2 mps 760 mmHg 62%
    11:00 +26°C° 0 mm 2 mps 759 mmHg 55%
    12:00 +27°C° 0 mm 1 mps 759 mmHg 48%
    13:00 +28°C° 0 mm 1 mps 758 mmHg 46%
    14:00 +28°C° 0 mm 1 mps 757 mmHg 44%
    15:00 +29°C° 0 mm 1 mps 757 mmHg 41%
    16:00 +27°C° 0 mm 1 mps 757 mmHg 50%
    17:00 +25°C° 0 mm 1 mps 757 mmHg 58%
    18:00 +23°C° 0 mm 1 mps 757 mmHg 66%
    19:00 +22°C° 0 mm 1 mps 758 mmHg 69%
    20:00 +21°C° 0 mm 1 mps 758 mmHg 72%
    21:00 +19°C° 0 mm 0 mps 758 mmHg 75%
    22:00 +18°C° 0 mm 0 mps 758 mmHg 77%
    23:00 +18°C° 0 mm 0 mps 758 mmHg 79%

    16 December, Sunday

    Time Temperature Precipitation Wind Pressure Humidity
    00:00 +18°C° 0 mm 0 mps 758 mmHg 81%
    01:00 +17°C° 0 mm 0 mps 757 mmHg 81%
    02:00 +19°C° 0 mm 1 mps 757 mmHg 82%
    03:00 +19°C° 0 mm 1 mps 757 mmHg 83%
    04:00 +19°C° 0 mm 1 mps 757 mmHg 83%
    05:00 +19°C° 0 mm 1 mps 757 mmHg 83%
    06:00 +19°C° 0 mm 1 mps 758 mmHg 83%
    07:00 +20°C° 0 mm 1 mps 758 mmHg 78%
    08:00 +22°C° 0 mm 1 mps 759 mmHg 72%
    09:00 +24°C° 0 mm 1 mps 759 mmHg 67%
    10:00 +24°C° 0.1 mm 1 mps 758 mmHg 69%
    11:00 +25°C° 0.1 mm 1 mps 758 mmHg 71%
    12:00 +26°C° 0.1 mm 1 mps 757 mmHg 73%
    13:00 +25°C° 0.3 mm 1 mps 757 mmHg 76%
    14:00 +25°C° 0.3 mm 1 mps 756 mmHg 80%
    15:00 +25°C° 0.3 mm 1 mps 756 mmHg 84%
    16:00 +24°C° 0.4 mm 1 mps 756 mmHg 86%
    17:00 +24°C° 0.4 mm 1 mps 756 mmHg 88%
    18:00 +24°C° 0.4 mm 1 mps 756 mmHg 90%
    19:00 +24°C° 0.4 mm 1 mps 756 mmHg 91%
    20:00 +24°C° 0.4 mm 1 mps 757 mmHg 92%
    21:00 +24°C° 0.4 mm 1 mps 757 mmHg 93%
    22:00 +24°C° 0.9 mm 1 mps 757 mmHg 94%
    23:00 +23°C° 0.9 mm 1 mps 756 mmHg 95%
    Show more